Weather History for CZOC - February, 2014

Change the Weather History Date:

Saturday, February 8, 2014

  Actual Average Record
Temperature  
Mean Temperature -12 °F -  
Max Temperature -1 °F - - ()
Min Temperature -25 °F - - ()
Degree Days  
Heating Degree Days 76    
Moisture  
Dew Point -16 °F    
Average Humidity 71    
Maximum Humidity 77    
Minimum Humidity 57    
Precipitation  
Precipitation 0.00 in - - ()
Sea Level Pressure  
Sea Level Pressure 30.82 in    
Wind  
Wind Speed 7 mph ()    
Max Wind Speed 13 mph    
Max Gust Speed -    
T = Trace of Precipitation, MM = Missing Value Source: Averaged Metar Reports

Daily Weather History Graph

Daily Weather History Graph

Search for Another Location

Airport or City:

Trip Planner

Search our weather history database for the weather conditions in past years. The results will help you decide how hot, cold, wet, or windy it might be!

Date:

Astronomy

Feb. 08, 2014 Rise Set
Actual Time 10:01 AM PST 5:06 PM PST
Civil Twilight 8:57 AM PST 6:10 PM PST
Nautical Twilight 7:51 AM PST 7:16 PM PST
Astronomical Twilight 6:48 AM PST 8:20 PM PST
Moon 11:04 AM PST (2/8) 6:21 AM PST (2/8)
Length of Visible Light 9h 12m
Length of Day
7h 04m
Waxing Gibbous, 69% of the Moon is Illuminated
Feb 8
Waxing Gibbous
Feb 14
Full
Feb 22
Last Quarter
Mar 1
New
Mar 8
First Quarter

Hourly Weather History & Observations

Time (PST) Temp. Windchill Dew Point Humidity Pressure Visibility Wind Dir Wind Speed Gust Speed Precip Events Conditions
12:00 AM -1.7 °F -18.3 °F -7.4 °F 77% 30.77 in - NNE 10.4 mph - N/A   Unknown
1:00 AM -2.9 °F -15.0 °F -8.9 °F 76% 30.79 in - NE 5.8 mph - N/A   Unknown
2:00 AM -3.8 °F -21.0 °F -10.3 °F 74% 30.80 in - NE 10.4 mph - N/A   Unknown
3:00 AM -4.9 °F -24.1 °F -11.2 °F 74% 30.81 in - NNE 12.7 mph - N/A   Unknown
4:00 AM -5 °F - -12 °F 61% 30.81 in - NNE 10.4 mph - -  
4:00 AM -5.1 °F -23.5 °F -11.6 °F 74% 30.81 in - NNE 11.5 mph - N/A   Unknown
5:00 AM -6.0 °F -16.9 °F -11.7 °F 76% 30.81 in - ENE 4.6 mph - N/A   Unknown
6:00 AM -6.7 °F -22.3 °F -12.3 °F 77% 30.82 in - NE 8.1 mph - N/A   Unknown
7:00 AM -9.2 °F -22.5 °F -15.2 °F 75% 30.83 in - NE 5.8 mph - N/A   Unknown
8:00 AM -8.0 °F -23.9 °F -14.1 °F 75% 30.83 in - NE 8.1 mph - N/A   Unknown
9:00 AM -7.2 °F -25.2 °F -14.1 °F 72% 30.83 in - NE 10.4 mph - N/A   Unknown
10:00 AM -7 °F - -14 °F 57% 30.84 in - NE 11.5 mph - -  
10:00 AM -7.4 °F -26.4 °F -14.3 °F 72% 30.84 in - NE 11.5 mph - N/A   Unknown
11:00 AM -8.0 °F -25.0 °F -14.8 °F 72% 30.84 in - NNE 9.2 mph - N/A   Unknown
12:00 PM -6.2 °F - -13.4 °F 71% 30.84 in - ENE 2.3 mph - N/A   Unknown
1:00 PM -5.8 °F -22.4 °F -12.8 °F 72% 30.84 in - NNE 9.2 mph - N/A   Unknown
2:00 PM -6.2 °F -25.7 °F -13.5 °F 70% 30.83 in - NNE 12.7 mph - N/A   Unknown
3:00 PM -6.9 °F -25.7 °F -14.3 °F 70% 30.83 in - NNE 11.5 mph - N/A   Unknown
4:00 PM -8 °F - -15 °F 57% 30.83 in - NE 11.5 mph - -  
4:00 PM -7.8 °F -27.7 °F -15.2 °F 70% 30.83 in - NE 12.7 mph - N/A   Unknown
5:00 PM -9.2 °F -26.6 °F -16.4 °F 71% 30.82 in - NE 9.2 mph - N/A   Unknown
6:00 PM -10.5 °F -24.0 °F -17.0 °F 73% 30.82 in - ENE 5.8 mph - N/A   Unknown
7:00 PM -10.7 °F -24.2 °F -17.3 °F 72% 30.82 in - ENE 5.8 mph - N/A   Unknown
8:00 PM -17.7 °F - -23.4 °F 75% 30.83 in - East 1.2 mph - N/A   Unknown
9:00 PM -20.2 °F - -25.8 °F 75% 30.82 in - Calm Calm - N/A   Unknown
10:00 PM -22 °F - -28 °F 62% 30.82 in - Calm Calm - -  
10:00 PM -21.6 °F - -27.6 °F 74% 30.82 in - Calm Calm - N/A   Unknown
11:00 PM -25.8 °F - -31.9 °F 73% 30.81 in - Calm Calm - N/A   Unknown